ARIANE 2 DEB, 33567

Orbit data source: Space-Track

ARIANE 2 DEB, 33567 is space debris in HEO originally from a launch on Fri, 27 Jan 1989 UTC launched from the French Guiana (FRGUI). Debris objects in space refer to the collection of defunct objects orbiting the Earth. Examples of debris include non-operational satellites, rocket bodies, and fragments generated from explosions, collisions, or faulty payload assembly.

Loading next visibility...
Identifier
33567, 1989-006BK
Orbit
HEO
Country
Flag of FRFR
Related business
Manufacturer
EADS/LV
Mission
Spacecraft
Bus & Motor
Unknown
Mass
Unknown
Launch date (UTC)
1989-01-27 (37 years ago)
Launch vehicle
Unknown
Launch site
French Guiana (FRGUI)
Object type
Payload
Rocket body
Debris
Shape & HBR
Unknown shape, 0.2 m
Radar Cross Section
Medium (>0.1 m² and <1 m²)

Expand to show TLE details & history
Last TLE update: 20 hours ago

TLE from 20 hours ago
0 ARIANE 2 DEB
1 33567U 89006BK  25291.71177808  .00000140  00000-0  12228-1 0  9996
2 33567   9.2913   6.9333 7099575 210.9347  51.9318  2.26373083173734
Epoch: 2025-10-18T17:04Z
TLE epoch observation values (Epoch: 2025-10-18T17:04:57.626Z)
Latitude
-1.89518°
Longitude
71.469°
Altitude
18,947.763 km
Speed
3.9 km/s
True Right ascension
23h 40m 35s
True Declination
-1° 53' 31"
Sunlit
Object was in daylight at epoch
Visualization orbit readout
Latitude
Unknown
Longitude
Unknown
Altitude
Unknown
Speed
Unknown
Apparent Right ascension
Unknown
Apparent Declination
Unknown
Sunlit
N/A
Visualization observer readout
Local Sidereal Time
07:46:13
Azimuth
Unknown
Elevation
Unknown
Doppler factor
Unknown
Orbital elements
Apogee altitude
35,526.16 km
Perigee altitude
729.658 km
Semi-major axis
24,506.046 km
Eccentricity
0.70996
Inclination
9.2913°
RAAN
6.9333°
Arg. of periapsis
210.9347°
True anomaly
137.01213°
Mean anomaly
51.9318°
Eccentric anomaly
92.5685°
Mean motion
0.56576 °/min
Orbital period
636.31 mins
BSTAR
0.012228
Loading maneuver chart data...
Computing Atmospheric mass density...
Loading historical data...
Loading historical data...
Loading historical data...
Loading historical data...
Loading historical data...
Loading historical data...
Loading historical data...

Documentation

Showing up to 5 results
|